sat.trackr.live / text

‹ back to catalog

STARLINK-1132

NORAD 45044 · 2020-006A

PAYLOAD ACTIVE UNKNOWN

§ Identity

Operator
Country
US
Launch date
2020-01-29
Launch site
AFETR
Launch vehicle
Mass (kg)
RCS (m²)

Purposes: comms

External: N2YO · Heavens-Above · Gunter

§ Orbital elements

Epoch: 2026-05-25T00:18:33.588000Z

Period
92.69 min
Inclination
53.1520°
Eccentricity
0.0001996
Mean motion
15.53508327 rev/d
Perigee alt
405.1 km
Apogee alt
407.8 km
Semi-major
6,784.6 km
B*
1.0431e-3
RAAN
249.4559°
Arg perigee
344.9924°
Mean anomaly
15.1027°
Rev number
34,875

§ Raw data

STARLINK-11321 45044U 20006A   26145.01288875  .00067521  00000+0  10431-2 0  99932 45044  53.1520 249.4559 0001996 344.9924  15.1027 15.53508327348755

JSON: /api/v1/satellites/45044 · /tle

For live sub-satellite position, see the globe view (requires WebGL).

§ Visibility from observer

Set your observer location to see the next 7 days of passes ≥ 10°. The values pass through the URL so the page stays shareable.

No JS? Fill the form by hand. The geolocation button needs JavaScript.